GMA01B EGPF-EGMD

Flight info

Callsign GMA01B
Flight time 1h 32m
Altitude 23000
Route LUSIV L612 COWLY Q70 DET
Aircraft BE20/L-SBGRY/S

Departure

Time 2026-05-05 07:42
Airport Glasgow Airport (EGPF)

Arrival

Time 2026-05-05 09:14
Airport Lydd London Ashford Airport (EGMD)
Time Latitude Longitude Altitude Speed Heading
2026-05-05 07:17 55.87241 -4.42514 26 ft 0 kts 289°
2026-05-05 07:33 55.87242 -4.42516 24 ft 1 kts 298°
2026-05-05 07:34 55.87263 -4.42518 25 ft 3 kts 324°
2026-05-05 07:34 55.87258 -4.42549 25 ft 0 kts 199°
2026-05-05 07:34 55.87256 -4.42550 25 ft 0 kts 200°
2026-05-05 07:35 55.87252 -4.42547 26 ft 3 kts 144°
2026-05-05 07:36 55.87213 -4.42543 25 ft 3 kts 231°
2026-05-05 07:36 55.87216 -4.42589 24 ft 0 kts 289°
2026-05-05 07:37 55.87216 -4.42592 24 ft 1 kts 289°
2026-05-05 07:37 55.87228 -4.42652 24 ft 7 kts 288°
2026-05-05 07:37 55.87286 -4.42660 24 ft 14 kts 19°
2026-05-05 07:38 55.87396 -4.42576 26 ft 20 kts 41°
2026-05-05 07:38 55.87495 -4.42395 27 ft 22 kts 47°
2026-05-05 07:38 55.87587 -4.42224 24 ft 20 kts 46°
2026-05-05 07:38 55.87599 -4.42201 24 ft 0 kts 46°
2026-05-05 07:39 55.87600 -4.42200 24 ft 1 kts 46°
2026-05-05 07:39 55.87625 -4.42165 25 ft 10 kts 22°
2026-05-05 07:39 55.87649 -4.42153 26 ft 0 kts 10°
2026-05-05 07:39 55.87659 -4.42150 24 ft 5 kts 10°
2026-05-05 07:40 55.87724 -4.42180 25 ft 15 kts 325°
2026-05-05 07:40 55.87762 -4.42263 24 ft 7 kts 260°
2026-05-05 07:40 55.87744 -4.42304 25 ft 0 kts 225°
2026-05-05 07:41 55.87642 -4.42493 24 ft 55 kts 228°
2026-05-05 07:41 55.87241 -4.43254 25 ft 110 kts 227°
2026-05-05 07:41 55.86642 -4.44375 240 ft 133 kts 230°
2026-05-05 07:42 55.85998 -4.45624 757 ft 140 kts 230°
2026-05-05 07:42 55.85289 -4.46900 1292 ft 151 kts 227°
2026-05-05 07:42 55.84501 -4.48209 1834 ft 158 kts 227°
2026-05-05 07:42 55.83693 -4.49647 2255 ft 174 kts 229°
2026-05-05 07:43 55.82824 -4.51248 2760 ft 182 kts 229°
2026-05-05 07:43 55.81946 -4.52826 3479 ft 176 kts 230°
2026-05-05 07:43 55.81134 -4.54445 4230 ft 171 kts 230°
2026-05-05 07:43 55.80157 -4.55689 4746 ft 184 kts 206°
2026-05-05 07:44 55.78830 -4.56026 5038 ft 204 kts 172°
2026-05-05 07:44 55.77551 -4.54995 5583 ft 201 kts 135°
2026-05-05 07:44 55.76863 -4.52883 6172 ft 196 kts 107°
2026-05-05 07:44 55.76404 -4.50575 6555 ft 204 kts 105°
2026-05-05 07:45 55.76054 -4.48260 7417 ft 183 kts 97°
2026-05-05 07:45 55.75886 -4.45924 7740 ft 200 kts 89°
2026-05-05 07:45 55.76267 -4.43572 8095 ft 200 kts 56°
2026-05-05 07:45 55.76596 -4.41135 8453 ft 214 kts 94°
2026-05-05 07:46 55.76049 -4.38607 8842 ft 222 kts 120°
2026-05-05 07:46 55.75197 -4.36284 9227 ft 228 kts 123°
2026-05-05 07:46 55.74305 -4.33967 9608 ft 232 kts 123°
2026-05-05 07:46 55.73354 -4.31628 9982 ft 235 kts 133°
2026-05-05 07:47 55.72137 -4.29622 10334 ft 237 kts 142°
2026-05-05 07:47 55.70790 -4.28001 10657 ft 239 kts 153°
2026-05-05 07:47 55.69291 -4.26744 11010 ft 238 kts 158°
2026-05-05 07:47 55.67785 -4.25517 11367 ft 239 kts 156°
2026-05-05 07:48 55.66316 -4.24122 11723 ft 240 kts 152°
2026-05-05 07:48 55.64869 -4.22654 12077 ft 240 kts 153°
2026-05-05 07:48 55.63407 -4.21200 12442 ft 241 kts 153°
2026-05-05 07:48 55.61935 -4.19763 12809 ft 242 kts 154°
2026-05-05 07:49 55.60452 -4.18317 13169 ft 244 kts 154°
2026-05-05 07:49 55.58967 -4.16863 13555 ft 245 kts 154°
2026-05-05 07:49 55.57980 -4.15897 13803 ft 245 kts 154°
2026-05-05 07:49 55.56481 -4.14431 14145 ft 247 kts 154°
2026-05-05 07:50 55.54980 -4.12965 14483 ft 246 kts 154°
2026-05-05 07:50 55.53485 -4.11506 14823 ft 244 kts 154°
2026-05-05 07:50 55.52007 -4.10064 15166 ft 242 kts 155°
2026-05-05 07:50 55.50545 -4.08639 15505 ft 239 kts 155°
2026-05-05 07:51 55.49096 -4.07229 15851 ft 237 kts 155°
2026-05-05 07:51 55.47656 -4.05830 16206 ft 236 kts 155°
2026-05-05 07:51 55.46225 -4.04440 16561 ft 234 kts 155°
2026-05-05 07:51 55.44803 -4.03059 16899 ft 233 kts 155°
2026-05-05 07:52 55.43387 -4.01686 17265 ft 232 kts 155°
2026-05-05 07:52 55.41976 -4.00318 17635 ft 231 kts 156°
2026-05-05 07:52 55.40571 -3.98958 18003 ft 230 kts 156°
2026-05-05 07:52 55.39166 -3.97598 18374 ft 231 kts 156°
2026-05-05 07:53 55.37742 -3.96219 18710 ft 234 kts 156°
2026-05-05 07:53 55.36322 -3.94848 19040 ft 233 kts 156°
2026-05-05 07:53 55.34906 -3.93483 19381 ft 232 kts 156°
2026-05-05 07:53 55.33493 -3.92120 19728 ft 231 kts 156°
2026-05-05 07:54 55.32083 -3.90762 20062 ft 231 kts 156°
2026-05-05 07:54 55.30675 -3.89406 20410 ft 231 kts 156°
2026-05-05 07:54 55.29269 -3.88054 20760 ft 230 kts 156°
2026-05-05 07:54 55.27871 -3.86710 21114 ft 229 kts 156°
2026-05-05 07:55 55.26474 -3.85367 21479 ft 230 kts 156°
2026-05-05 07:55 55.25067 -3.84018 21847 ft 231 kts 156°
2026-05-05 07:55 55.23652 -3.82662 22221 ft 232 kts 156°
2026-05-05 07:55 55.22232 -3.81301 22599 ft 233 kts 156°
2026-05-05 07:56 55.20809 -3.79938 22977 ft 233 kts 156°
2026-05-05 07:56 55.19340 -3.78540 23024 ft 247 kts 157°
2026-05-05 07:56 55.17805 -3.77076 23034 ft 256 kts 156°
2026-05-05 07:56 55.16222 -3.75564 23039 ft 263 kts 156°
2026-05-05 07:57 55.14601 -3.74015 23033 ft 268 kts 156°
2026-05-05 07:57 55.12957 -3.72446 23035 ft 271 kts 156°
2026-05-05 07:57 55.11294 -3.70863 23035 ft 273 kts 156°
2026-05-05 07:57 55.09643 -3.69292 23032 ft 275 kts 156°
2026-05-05 07:58 55.09335 -3.68999 23033 ft 275 kts 156°
2026-05-05 07:58 55.07628 -3.67377 23035 ft 276 kts 156°
2026-05-05 07:58 55.07055 -3.66833 23036 ft 276 kts 156°
2026-05-05 07:58 55.05931 -3.65766 23034 ft 277 kts 156°
2026-05-05 07:59 55.04238 -3.64161 23033 ft 277 kts 156°
2026-05-05 07:59 55.02542 -3.62554 23035 ft 278 kts 156°
2026-05-05 07:59 55.00845 -3.60948 23033 ft 278 kts 156°
2026-05-05 07:59 54.99821 -3.59979 23036 ft 278 kts 156°
2026-05-05 08:00 54.98547 -3.58775 23036 ft 278 kts 156°
2026-05-05 08:00 54.97758 -3.58030 23036 ft 278 kts 156°
2026-05-05 08:00 54.96059 -3.56427 23036 ft 278 kts 156°
2026-05-05 08:00 54.94361 -3.54825 23025 ft 278 kts 156°
2026-05-05 08:01 54.92663 -3.53226 23027 ft 277 kts 156°
2026-05-05 08:01 54.90968 -3.51630 23027 ft 277 kts 156°
2026-05-05 08:01 54.89272 -3.50035 23029 ft 277 kts 156°
2026-05-05 08:01 54.87577 -3.48444 23030 ft 277 kts 156°
2026-05-05 08:02 54.85883 -3.46854 23028 ft 277 kts 156°
2026-05-05 08:02 54.84187 -3.45264 23028 ft 277 kts 156°
2026-05-05 08:02 54.82493 -3.43677 23029 ft 277 kts 156°
2026-05-05 08:02 54.80798 -3.42092 23029 ft 277 kts 156°
2026-05-05 08:03 54.79102 -3.40506 23032 ft 277 kts 156°
2026-05-05 08:03 54.77407 -3.38923 23032 ft 277 kts 156°
2026-05-05 08:03 54.75711 -3.37341 23032 ft 277 kts 157°
2026-05-05 08:03 54.74015 -3.35760 23032 ft 277 kts 157°
2026-05-05 08:04 54.72319 -3.34185 23032 ft 276 kts 158°
2026-05-05 08:04 54.70579 -3.32841 23016 ft 274 kts 162°
2026-05-05 08:04 54.68833 -3.31538 23032 ft 273 kts 161°
2026-05-05 08:04 54.67089 -3.30223 23032 ft 274 kts 161°
2026-05-05 08:05 54.65343 -3.28907 23033 ft 274 kts 161°
2026-05-05 08:05 54.63595 -3.27594 23034 ft 274 kts 161°
2026-05-05 08:05 54.61846 -3.26284 23034 ft 274 kts 161°
2026-05-05 08:05 54.60095 -3.24971 23036 ft 274 kts 161°
2026-05-05 08:06 54.58342 -3.23659 23033 ft 275 kts 161°
2026-05-05 08:06 54.56592 -3.22349 23034 ft 274 kts 161°
2026-05-05 08:06 54.54842 -3.21041 23028 ft 274 kts 161°
2026-05-05 08:06 54.53119 -3.19755 23031 ft 273 kts 161°
2026-05-05 08:07 54.51375 -3.18454 23029 ft 273 kts 161°
2026-05-05 08:07 54.49633 -3.17156 23030 ft 273 kts 161°
2026-05-05 08:07 54.47889 -3.15858 23028 ft 273 kts 161°
2026-05-05 08:07 54.46146 -3.14562 23028 ft 273 kts 161°
2026-05-05 08:08 54.44407 -3.13270 23022 ft 272 kts 161°
2026-05-05 08:08 54.42675 -3.11985 23028 ft 271 kts 161°
2026-05-05 08:08 54.40943 -3.10701 23028 ft 271 kts 161°
2026-05-05 08:08 54.39210 -3.09417 23026 ft 272 kts 161°
2026-05-05 08:09 54.37475 -3.08133 23020 ft 272 kts 161°
2026-05-05 08:09 54.35738 -3.06849 23029 ft 272 kts 161°
2026-05-05 08:09 54.34003 -3.05567 23026 ft 272 kts 161°
2026-05-05 08:09 54.32266 -3.04285 23027 ft 272 kts 161°
2026-05-05 08:10 54.30530 -3.03005 23027 ft 272 kts 161°
2026-05-05 08:10 54.28793 -3.01726 23032 ft 272 kts 161°
2026-05-05 08:10 54.27057 -3.00448 23030 ft 272 kts 161°
2026-05-05 08:10 54.25317 -2.99168 23030 ft 272 kts 161°
2026-05-05 08:11 54.23577 -2.97891 23032 ft 272 kts 161°
2026-05-05 08:11 54.21837 -2.96613 23030 ft 272 kts 161°
2026-05-05 08:11 54.20099 -2.95340 23037 ft 271 kts 160°
2026-05-05 08:11 54.18370 -2.94072 23035 ft 270 kts 160°
2026-05-05 08:12 54.16643 -2.92808 23029 ft 270 kts 160°
2026-05-05 08:12 54.14920 -2.91548 23032 ft 269 kts 160°
2026-05-05 08:12 54.13515 -2.90522 23025 ft 269 kts 160°
2026-05-05 08:13 54.12189 -2.89553 23035 ft 269 kts 160°
2026-05-05 08:13 54.10468 -2.88298 23031 ft 269 kts 160°
2026-05-05 08:14 54.08746 -2.87043 23027 ft 270 kts 160°
2026-05-05 08:14 54.07018 -2.85785 23029 ft 271 kts 160°
2026-05-05 08:14 54.05284 -2.84523 23034 ft 271 kts 160°
2026-05-05 08:14 54.03541 -2.83256 23046 ft 274 kts 160°
2026-05-05 08:15 54.01774 -2.81974 23050 ft 277 kts 160°
2026-05-05 08:15 53.99995 -2.80682 23046 ft 279 kts 160°
2026-05-05 08:15 53.98203 -2.79382 23047 ft 281 kts 160°
2026-05-05 08:15 53.96402 -2.78076 23049 ft 281 kts 160°
2026-05-05 08:16 53.94601 -2.76771 23036 ft 281 kts 159°
2026-05-05 08:16 53.92805 -2.75472 23036 ft 280 kts 160°
2026-05-05 08:16 53.91013 -2.74177 23038 ft 280 kts 160°
2026-05-05 08:16 53.89222 -2.72885 23039 ft 279 kts 160°
2026-05-05 08:17 53.87459 -2.71614 23037 ft 279 kts 160°
2026-05-05 08:17 53.85671 -2.70327 23037 ft 279 kts 159°
2026-05-05 08:17 53.83862 -2.69024 23036 ft 279 kts 159°
2026-05-05 08:17 53.82102 -2.67759 23036 ft 279 kts 159°
2026-05-05 08:18 53.80318 -2.66478 23031 ft 278 kts 159°
2026-05-05 08:18 53.78535 -2.65199 23031 ft 278 kts 159°
2026-05-05 08:18 53.76754 -2.63923 23031 ft 278 kts 159°
2026-05-05 08:18 53.74972 -2.62645 23031 ft 278 kts 160°
2026-05-05 08:19 53.73191 -2.61372 23031 ft 278 kts 160°
2026-05-05 08:19 53.71409 -2.60098 23031 ft 278 kts 160°
2026-05-05 08:19 53.69628 -2.58826 23035 ft 278 kts 160°
2026-05-05 08:19 53.67850 -2.57556 23035 ft 278 kts 160°
2026-05-05 08:20 53.66069 -2.56288 23035 ft 278 kts 160°
2026-05-05 08:20 53.64288 -2.55019 23035 ft 277 kts 160°
2026-05-05 08:20 53.62512 -2.53755 23035 ft 277 kts 160°
2026-05-05 08:20 53.60734 -2.52491 23035 ft 277 kts 160°
2026-05-05 08:21 53.58955 -2.51227 23035 ft 277 kts 160°
2026-05-05 08:21 53.57177 -2.49965 23034 ft 277 kts 160°
2026-05-05 08:21 53.55400 -2.48705 23034 ft 277 kts 160°
2026-05-05 08:21 53.53623 -2.47445 23035 ft 277 kts 160°
2026-05-05 08:22 53.51846 -2.46188 23031 ft 277 kts 160°
2026-05-05 08:22 53.50068 -2.44931 23031 ft 277 kts 160°
2026-05-05 08:22 53.48295 -2.43677 23031 ft 277 kts 160°
2026-05-05 08:22 53.46519 -2.42425 23030 ft 277 kts 160°
2026-05-05 08:23 53.44744 -2.41173 23030 ft 277 kts 160°
2026-05-05 08:23 53.42972 -2.39924 23038 ft 276 kts 160°
2026-05-05 08:23 53.41197 -2.38674 23038 ft 276 kts 160°
2026-05-05 08:23 53.39425 -2.37428 23038 ft 276 kts 160°
2026-05-05 08:24 53.37651 -2.36182 23038 ft 276 kts 160°
2026-05-05 08:24 53.35877 -2.34937 23038 ft 276 kts 160°
2026-05-05 08:24 53.34103 -2.33692 23038 ft 277 kts 161°
2026-05-05 08:24 53.32330 -2.32450 23039 ft 277 kts 160°
2026-05-05 08:25 53.30554 -2.31206 23038 ft 277 kts 160°
2026-05-05 08:25 53.28779 -2.29965 23038 ft 277 kts 161°
2026-05-05 08:25 53.27003 -2.28724 23038 ft 276 kts 161°
2026-05-05 08:25 53.25230 -2.27486 23038 ft 276 kts 161°
2026-05-05 08:26 53.23455 -2.26248 23037 ft 276 kts 160°
2026-05-05 08:26 53.21683 -2.25013 23038 ft 276 kts 161°
2026-05-05 08:26 53.19914 -2.23781 23038 ft 276 kts 161°
2026-05-05 08:26 53.18143 -2.22549 23037 ft 276 kts 161°
2026-05-05 08:27 53.16374 -2.21320 23038 ft 276 kts 161°
2026-05-05 08:27 53.14605 -2.20091 23037 ft 275 kts 161°
2026-05-05 08:27 53.12838 -2.18866 23036 ft 275 kts 161°
2026-05-05 08:27 53.11075 -2.17644 23035 ft 275 kts 161°
2026-05-05 08:28 53.09302 -2.16416 23035 ft 275 kts 161°
2026-05-05 08:28 53.07559 -2.15210 23034 ft 275 kts 161°
2026-05-05 08:28 53.05791 -2.13987 23034 ft 275 kts 161°
2026-05-05 08:28 53.04020 -2.12764 23034 ft 276 kts 161°
2026-05-05 08:29 53.02251 -2.11544 23034 ft 276 kts 161°
2026-05-05 08:29 53.00477 -2.10321 23033 ft 276 kts 161°
2026-05-05 08:29 52.98710 -2.09103 23022 ft 275 kts 161°
2026-05-05 08:30 52.95186 -2.06679 23030 ft 273 kts 161°
2026-05-05 08:30 52.93432 -2.05474 23027 ft 273 kts 161°
2026-05-05 08:30 52.91680 -2.04271 23029 ft 272 kts 161°
2026-05-05 08:30 52.89931 -2.03071 23029 ft 272 kts 161°
2026-05-05 08:31 52.88180 -2.01872 23020 ft 272 kts 161°
2026-05-05 08:31 52.86430 -2.00674 23026 ft 272 kts 161°
2026-05-05 08:31 52.84678 -1.99476 23022 ft 272 kts 161°
2026-05-05 08:31 52.82926 -1.98278 23023 ft 272 kts 161°
2026-05-05 08:32 52.81175 -1.97082 23022 ft 272 kts 162°
2026-05-05 08:32 52.79425 -1.95888 23023 ft 272 kts 162°
2026-05-05 08:32 52.77673 -1.94695 23020 ft 272 kts 162°
2026-05-05 08:32 52.75923 -1.93502 23022 ft 272 kts 162°
2026-05-05 08:33 52.74173 -1.92311 23026 ft 271 kts 161°
2026-05-05 08:33 52.72429 -1.91126 23034 ft 271 kts 161°
2026-05-05 08:33 52.70686 -1.89942 23030 ft 271 kts 161°
2026-05-05 08:33 52.68943 -1.88759 23031 ft 271 kts 161°
2026-05-05 08:34 52.67201 -1.87578 23033 ft 271 kts 161°
2026-05-05 08:34 52.65462 -1.86400 23016 ft 271 kts 161°
2026-05-05 08:34 52.63719 -1.85220 23014 ft 271 kts 161°
2026-05-05 08:34 52.61978 -1.84042 23017 ft 271 kts 161°
2026-05-05 08:35 52.60236 -1.82865 23011 ft 270 kts 161°
2026-05-05 08:35 52.58496 -1.81690 23011 ft 270 kts 161°
2026-05-05 08:35 52.56753 -1.80515 23015 ft 271 kts 161°
2026-05-05 08:35 52.55578 -1.79722 23013 ft 271 kts 161°
2026-05-05 08:36 52.53835 -1.78549 23014 ft 271 kts 161°
2026-05-05 08:36 52.52095 -1.77378 23012 ft 270 kts 161°
2026-05-05 08:36 52.50354 -1.76206 23010 ft 270 kts 160°
2026-05-05 08:36 52.48614 -1.75037 23007 ft 270 kts 160°
2026-05-05 08:37 52.46875 -1.73870 23007 ft 270 kts 160°
2026-05-05 08:37 52.45305 -1.72817 23008 ft 270 kts 160°
2026-05-05 08:37 52.43567 -1.71652 23009 ft 270 kts 160°
2026-05-05 08:37 52.41829 -1.70488 23010 ft 270 kts 160°
2026-05-05 08:38 52.40092 -1.69326 23012 ft 270 kts 160°
2026-05-05 08:38 52.38354 -1.68164 23008 ft 270 kts 160°
2026-05-05 08:38 52.36618 -1.67004 23011 ft 270 kts 160°
2026-05-05 08:38 52.34907 -1.65754 23012 ft 269 kts 155°
2026-05-05 08:39 52.33240 -1.64366 23008 ft 269 kts 156°
2026-05-05 08:39 52.31562 -1.62989 23007 ft 270 kts 156°
2026-05-05 08:39 52.29885 -1.61617 23013 ft 270 kts 156°
2026-05-05 08:39 52.28256 -1.60280 22989 ft 270 kts 156°
2026-05-05 08:40 52.26575 -1.58900 22994 ft 270 kts 155°
2026-05-05 08:40 52.24897 -1.57524 22991 ft 270 kts 155°
2026-05-05 08:40 52.23218 -1.56151 22991 ft 270 kts 155°
2026-05-05 08:40 52.21543 -1.54781 22990 ft 269 kts 155°
2026-05-05 08:41 52.19867 -1.53410 22989 ft 269 kts 155°
2026-05-05 08:41 52.18193 -1.52044 22988 ft 269 kts 155°
2026-05-05 08:41 52.16520 -1.50679 22988 ft 269 kts 155°
2026-05-05 08:41 52.14845 -1.49314 22988 ft 269 kts 155°
2026-05-05 08:42 52.13173 -1.47951 22991 ft 269 kts 155°
2026-05-05 08:42 52.11501 -1.46590 22985 ft 269 kts 155°
2026-05-05 08:42 52.09923 -1.45308 22986 ft 269 kts 155°
2026-05-05 08:42 52.08323 -1.44008 22986 ft 269 kts 155°
2026-05-05 08:43 52.06648 -1.42648 22988 ft 269 kts 155°
2026-05-05 08:43 52.04973 -1.41290 22989 ft 269 kts 155°
2026-05-05 08:43 52.03297 -1.39931 22987 ft 269 kts 155°
2026-05-05 08:43 52.01623 -1.38574 23006 ft 269 kts 155°
2026-05-05 08:44 51.99951 -1.37221 23010 ft 269 kts 155°
2026-05-05 08:44 51.98283 -1.35872 23007 ft 269 kts 155°
2026-05-05 08:44 51.96634 -1.34540 23009 ft 269 kts 155°
2026-05-05 08:44 51.94962 -1.33190 23009 ft 268 kts 155°
2026-05-05 08:45 51.93446 -1.31967 23007 ft 268 kts 155°
2026-05-05 08:45 51.91723 -1.30578 23008 ft 268 kts 155°
2026-05-05 08:45 51.90050 -1.29231 23008 ft 268 kts 155°
2026-05-05 08:45 51.88380 -1.27888 23007 ft 268 kts 155°
2026-05-05 08:46 51.86708 -1.26543 23007 ft 268 kts 155°
2026-05-05 08:46 51.85254 -1.25375 23007 ft 268 kts 155°
2026-05-05 08:46 51.83582 -1.24033 23007 ft 268 kts 155°
2026-05-05 08:46 51.81999 -1.22763 23009 ft 268 kts 155°
2026-05-05 08:47 51.80298 -1.21400 23009 ft 268 kts 155°
2026-05-05 08:47 51.78627 -1.20062 23010 ft 268 kts 155°
2026-05-05 08:47 51.77079 -1.18823 23009 ft 269 kts 155°
2026-05-05 08:47 51.75432 -1.17507 23007 ft 269 kts 155°
2026-05-05 08:48 51.73756 -1.16168 22982 ft 269 kts 155°
2026-05-05 08:48 51.72077 -1.14828 22983 ft 269 kts 155°
2026-05-05 08:48 51.70398 -1.13488 22983 ft 269 kts 155°
2026-05-05 08:48 51.68717 -1.12150 22983 ft 269 kts 155°
2026-05-05 08:49 51.67037 -1.10812 22987 ft 270 kts 155°
2026-05-05 08:49 51.65357 -1.09475 22987 ft 270 kts 155°
2026-05-05 08:49 51.63676 -1.08133 22987 ft 269 kts 154°
2026-05-05 08:49 51.62165 -1.06370 22990 ft 271 kts 137°
2026-05-05 08:50 51.61014 -1.03960 22995 ft 274 kts 121°
2026-05-05 08:50 51.60246 -1.01154 22997 ft 275 kts 114°
2026-05-05 08:50 51.59536 -0.98339 23000 ft 275 kts 115°
2026-05-05 08:50 51.58911 -0.95879 22995 ft 276 kts 115°
2026-05-05 08:51 51.58157 -0.92920 22986 ft 276 kts 115°
2026-05-05 08:51 51.58026 -0.92409 22986 ft 277 kts 114°
2026-05-05 08:51 51.57285 -0.89501 22988 ft 277 kts 114°
2026-05-05 08:51 51.56556 -0.86637 22992 ft 277 kts 114°
2026-05-05 08:52 51.55828 -0.83790 22828 ft 283 kts 115°
2026-05-05 08:52 51.55069 -0.80828 22566 ft 290 kts 114°
2026-05-05 08:52 51.54296 -0.77810 22308 ft 294 kts 114°
2026-05-05 08:52 51.53571 -0.74978 22068 ft 296 kts 114°
2026-05-05 08:53 51.52879 -0.72282 21840 ft 297 kts 114°
2026-05-05 08:53 51.52091 -0.69217 21582 ft 297 kts 114°
2026-05-05 08:53 51.51302 -0.66152 21325 ft 296 kts 115°
2026-05-05 08:53 51.50515 -0.63098 21070 ft 296 kts 114°
2026-05-05 08:54 51.49730 -0.60056 20816 ft 295 kts 114°
2026-05-05 08:54 51.48954 -0.57051 20567 ft 295 kts 114°
2026-05-05 08:54 51.48167 -0.54013 20312 ft 294 kts 114°
2026-05-05 08:54 51.47382 -0.50984 20069 ft 294 kts 114°
2026-05-05 08:55 51.46611 -0.48013 19830 ft 293 kts 114°
2026-05-05 08:55 51.45828 -0.44999 19582 ft 293 kts 114°
2026-05-05 08:55 51.45140 -0.42352 19365 ft 293 kts 114°
2026-05-05 08:55 51.44345 -0.39301 19125 ft 292 kts 114°
2026-05-05 08:56 51.43562 -0.36300 18883 ft 291 kts 114°
2026-05-05 08:56 51.42781 -0.33307 18650 ft 291 kts 114°
2026-05-05 08:56 51.42000 -0.30324 18414 ft 290 kts 114°
2026-05-05 08:56 51.41220 -0.27344 18161 ft 290 kts 114°
2026-05-05 08:57 51.40457 -0.24433 17895 ft 289 kts 114°
2026-05-05 08:57 51.39677 -0.21461 17625 ft 289 kts 114°
2026-05-05 08:57 51.39413 -0.20457 17531 ft 288 kts 114°
2026-05-05 08:57 51.38721 -0.17826 17297 ft 288 kts 114°
2026-05-05 08:58 51.37959 -0.14932 17038 ft 288 kts 114°
2026-05-05 08:58 51.37170 -0.11937 16770 ft 288 kts 113°
2026-05-05 08:58 51.36401 -0.09028 16517 ft 288 kts 113°
2026-05-05 08:58 51.35622 -0.06079 16259 ft 287 kts 113°
2026-05-05 08:59 51.34844 -0.03141 16004 ft 287 kts 113°
2026-05-05 08:59 51.34122 -0.00414 15773 ft 287 kts 113°
2026-05-05 08:59 51.33362 0.02526 15536 ft 285 kts 109°
2026-05-05 08:59 51.32985 0.05624 15287 ft 284 kts 94°
2026-05-05 09:00 51.32726 0.08725 15075 ft 282 kts 108°
2026-05-05 09:00 51.31745 0.11431 14852 ft 283 kts 128°
2026-05-05 09:00 51.30416 0.13761 14627 ft 285 kts 133°
2026-05-05 09:00 51.29007 0.15997 14401 ft 283 kts 135°
2026-05-05 09:01 51.27606 0.18166 14174 ft 279 kts 135°
2026-05-05 09:01 51.26386 0.20046 13974 ft 278 kts 135°
2026-05-05 09:01 51.24992 0.22192 13726 ft 278 kts 135°
2026-05-05 09:01 51.23603 0.24335 13469 ft 278 kts 134°
2026-05-05 09:02 51.22243 0.26419 13221 ft 277 kts 135°
2026-05-05 09:02 51.20851 0.28546 12968 ft 277 kts 135°
2026-05-05 09:02 51.19466 0.30673 12662 ft 277 kts 135°
2026-05-05 09:02 51.18084 0.32789 12275 ft 273 kts 135°
2026-05-05 09:03 51.16722 0.34863 11891 ft 270 kts 135°
2026-05-05 09:03 51.15408 0.36864 11522 ft 267 kts 135°
2026-05-05 09:03 51.14074 0.38909 11149 ft 265 kts 135°
2026-05-05 09:03 51.12806 0.40864 10791 ft 263 kts 135°
2026-05-05 09:04 51.11508 0.42866 10429 ft 262 kts 135°
2026-05-05 09:04 51.10157 0.44714 10073 ft 259 kts 143°
2026-05-05 09:04 51.08681 0.46354 9678 ft 258 kts 145°
2026-05-05 09:04 51.07209 0.47918 9278 ft 257 kts 146°
2026-05-05 09:05 51.05720 0.49484 8877 ft 256 kts 146°
2026-05-05 09:05 51.04234 0.51039 8474 ft 256 kts 146°
2026-05-05 09:05 51.02744 0.52582 8087 ft 255 kts 146°
2026-05-05 09:05 51.01260 0.54118 7700 ft 254 kts 146°
2026-05-05 09:06 50.99787 0.55645 7315 ft 253 kts 146°
2026-05-05 09:06 50.98306 0.57162 6935 ft 253 kts 146°
2026-05-05 09:06 50.96822 0.58664 6560 ft 252 kts 146°
2026-05-05 09:06 50.95343 0.60150 6159 ft 250 kts 146°
2026-05-05 09:07 50.93888 0.61617 5769 ft 246 kts 146°
2026-05-05 09:07 50.92480 0.63107 5380 ft 241 kts 140°
2026-05-05 09:07 50.91237 0.64761 4989 ft 226 kts 136°
2026-05-05 09:07 50.90075 0.66346 4590 ft 215 kts 135°
2026-05-05 09:08 50.88956 0.67848 4177 ft 207 kts 136°
2026-05-05 09:08 50.87866 0.69281 3773 ft 201 kts 136°
2026-05-05 09:08 50.86802 0.70659 3372 ft 192 kts 134°
2026-05-05 09:08 50.86188 0.72403 2978 ft 179 kts 94°
2026-05-05 09:09 50.86282 0.74300 2598 ft 171 kts 77°
2026-05-05 09:09 50.86504 0.76146 2203 ft 170 kts 76°
2026-05-05 09:09 50.86720 0.77956 1989 ft 159 kts 76°
2026-05-05 09:09 50.86895 0.79552 1988 ft 136 kts 76°
2026-05-05 09:10 50.87039 0.80979 1980 ft 129 kts 76°
2026-05-05 09:10 50.87194 0.82391 1979 ft 131 kts 72°
2026-05-05 09:10 50.87524 0.83682 1989 ft 117 kts 57°
2026-05-05 09:10 50.88023 0.84548 1986 ft 101 kts 27°
2026-05-05 09:11 50.88561 0.85165 1978 ft 94 kts 44°
2026-05-05 09:11 50.89042 0.85937 1776 ft 104 kts 43°
2026-05-05 09:11 50.89552 0.86790 1491 ft 111 kts 45°
2026-05-05 09:11 50.90086 0.87668 1346 ft 108 kts 44°
2026-05-05 09:12 50.90624 0.88499 1187 ft 108 kts 43°
2026-05-05 09:12 50.91172 0.89305 1006 ft 107 kts 38°
2026-05-05 09:12 50.91774 0.89987 842 ft 109 kts 33°
2026-05-05 09:12 50.92429 0.90653 775 ft 113 kts 31°
2026-05-05 09:13 50.93072 0.91316 594 ft 110 kts 30°
2026-05-05 09:13 50.93702 0.91931 428 ft 105 kts 32°
2026-05-05 09:13 50.94306 0.92564 271 ft 102 kts 33°
2026-05-05 09:13 50.94882 0.93158 99 ft 97 kts 30°
2026-05-05 09:14 50.95435 0.93717 19 ft 83 kts 31°
2026-05-05 09:14 50.95724 0.94012 13 ft 14 kts 35°
2026-05-05 09:14 50.95827 0.94118 14 ft 21 kts 31°
2026-05-05 09:14 50.95944 0.94240 13 ft 17 kts 33°
2026-05-05 09:15 50.96032 0.94305 11 ft 12 kts 347°
2026-05-05 09:15 50.96058 0.94202 12 ft 13 kts 218°
2026-05-05 09:15 50.95968 0.94112 12 ft 19 kts 213°
2026-05-05 09:15 50.95874 0.94018 12 ft 13 kts 211°
2026-05-05 09:16 50.95801 0.93943 12 ft 19 kts 215°
2026-05-05 09:16 50.95718 0.93858 12 ft 17 kts 213°
2026-05-05 09:16 50.95643 0.93781 12 ft 17 kts 213°
2026-05-05 09:16 50.95571 0.93708 15 ft 7 kts 217°
2026-05-05 09:17 50.95608 0.93626 15 ft 14 kts 316°
2026-05-05 09:17 50.95701 0.93491 15 ft 16 kts 314°
2026-05-05 09:17 50.95769 0.93401 15 ft 6 kts 355°
2026-05-05 09:17 50.95787 0.93424 15 ft 0 kts 46°